Back to catalog

COSMOS 1695

AliveMilitaryPO
NORAD 16143·PAYLOAD·🇷🇺 Russia

Launched Oct 9, 1985 from Plesetsk Cosmodrome

Loading…

Next Passes (next 24 hours)

TLE

FreshSource: Space-Track

Epoch: Sep 14, 2026, 06:42 UTC

1 16143U 85094F   26257.27944660  .00000004  00000-0 -35966-4 0  9999
2 16143  82.6034 211.5895 0006053 281.1398 147.7918 12.62895746886747

Track COSMOS 1695 in real time with AllMySat

Download on the App Store